User: anonymous   Login
Location: Unspecified
(0.0000°N, 0.0000°E)
Time: 18:31:45
(UTC+00:00)
Language:

UKube-1 - Orbit

View from above orbital plane
View from above orbital plane
View from above satellite
View from above satellite

Ground track
Ground track

The orbit data is extracted from the following two-line orbital elements,

1 40074U 14037F   18053.30675478  .00000326  00000-0  46596-4 0  9992
2 40074  98.3689 184.8903 0004022 344.1080  16.0014 14.83722294196269
Epoch (UTC): 22 February 2018 07:21:43
Eccentricity: 0.0004022
inclination: 98.3689°
perigee height: 615 km
apogee height: 620 km
right ascension of ascending node: 184.8903°
argument of perigee: 344.1080°
revolutions per day: 14.83722294
mean anomaly at epoch: 16.0014°
orbit number at epoch: 19626

The dashed part of the orbit path shows where the satellite is in the earth's shadow,  

DLR